Flag for Germany Weather past 2 weeks in Mörfelden-Walldorf, Hesse, Germany

Now
63 °F

Partly sunny.


Feels Like: 63 °F
Forecast: 59 / 74 °F
Wind: 9 mph from East

Location: Frankfurt-M-Flughafen Airport

Current Time: Sep 16, 2014 at 10:15:02 AM

Latest Report: Sep 16, 2014 at 9:50 AM


Visibility: N/A

Pressure: 30.01 "Hg

Humidity: 88%

Dew point: 59 °F

Location of Mörfelden-WalldorfLocation

Historic Weather in Mörfelden-Walldorf — Graph

°F

Mörfelden-Walldorf temperature yesterday

Maximum temperature yesterday: 70 °F (at 2:20 PM)
Minimum temperature yesterday: 55 °F (at 12:20 AM)
Average temperature yesterday: 63 °F

Past Weeks' High & Low Weather Summary

 TemperatureHumidityPressure
High79 °F (Sep 6, 3:20 PM)100% (Sep 2, 4:50 AM)30.18 "Hg (Sep 2, 4:50 AM)
Low46 °F (Sep 11, 2:20 AM)46% (Sep 9, 5:50 PM)29.86 "Hg (Sep 6, 4:20 PM)
Average63 °F80%30.05 "Hg
* Reported Sep 1 9:20 AM — Sep 16 9:20 AM, Mörfelden-Walldorf, Weather by CustomWeather, © 2014

Note: Actual official high and low records may vary slightly from our data, if they occured in-between our weather recording intervals... More about our weather records

Advertising

Mörfelden-Walldorf weather history for previous 24 hours

 ConditionsComfort  
Time TempWeatherWind HumidityBarometerVisibility
9:20 AM
Sep 16
63 °FPartly sunny.10 mph88%30.01 "HgN/A
8:50 AM61 °FSunny.9 mph94%30.01 "Hg10 mi
8:20 AM59 °FSunny.8 mph94%30.01 "Hg10 mi
7:50 AM59 °FClear.7 mph100%30.01 "Hg10 mi
7:20 AM57 °FClear.7 mph100%30.01 "Hg10 mi
6:50 AM57 °FClear.7 mph100%30.01 "Hg10 mi
6:20 AM59 °FClear.6 mph100%29.98 "Hg10 mi
5:50 AM57 °FClear.5 mph100%29.98 "Hg10 mi
5:20 AM57 °FClear.5 mph100%29.98 "Hg10 mi
4:50 AM59 °FClear.7 mph100%29.98 "Hg10 mi
4:20 AM59 °FPassing clouds.6 mph100%29.98 "HgN/A
3:50 AM59 °FPassing clouds.6 mph100%29.98 "HgN/A
3:20 AM59 °FPassing clouds.6 mph100%29.98 "HgN/A
2:50 AM59 °FPassing clouds.6 mph100%29.98 "HgN/A
2:20 AM61 °FPassing clouds.6 mph100%30.01 "HgN/A
1:50 AM61 °FPassing clouds.6 mph100%30.01 "HgN/A
1:20 AM61 °FPassing clouds.6 mph100%30.01 "HgN/A
12:50 AM61 °FPassing clouds.5 mph100%30.01 "HgN/A
12:20 AM61 °FPassing clouds.3 mph100%30.01 "HgN/A
11:50 PM
Sep 15
59 °FPassing clouds.5 mph100%30.01 "HgN/A
11:20 PM61 °FPassing clouds.6 mph100%30.01 "HgN/A
10:50 PM61 °FPassing clouds.6 mph94%30.01 "HgN/A
10:20 PM61 °FClear.5 mph94%30.01 "Hg10 mi
9:50 PM63 °FClear.5 mph88%30.01 "Hg10 mi
9:20 PM63 °FPassing clouds.5 mph94%30.01 "HgN/A
8:50 PM64 °FPassing clouds.5 mph88%30.01 "HgN/A
8:20 PM66 °FSunny.6 mph83%30.01 "Hg10 mi
7:50 PM66 °FPartly sunny.7 mph83%29.98 "HgN/A
7:20 PM68 °FPartly sunny.8 mph78%29.98 "HgN/A
6:50 PM68 °FPartly sunny.5 mph78%29.98 "HgN/A
6:20 PM68 °FPartly sunny.5 mph78%29.98 "HgN/A
5:50 PM68 °FPartly sunny.7 mph83%30.01 "HgN/A
5:20 PM68 °FPartly sunny.7 mph78%30.01 "HgN/A
4:20 PM68 °FOvercast.7 mph78%30.01 "HgN/A
3:50 PM70 °FPartly sunny.7 mph73%30.01 "HgN/A
3:20 PM70 °FPartly sunny.6 mph73%30.01 "HgN/A
2:50 PM70 °FBroken clouds.6 mph73%30.01 "HgN/A
2:20 PM70 °FPartly sunny.5 mph69%30.01 "HgN/A
1:50 PM68 °FPartly sunny.8 mph78%30.01 "HgN/A
1:20 PM68 °FBroken clouds.8 mph78%30.04 "HgN/A
12:50 PM68 °FBroken clouds.8 mph78%30.04 "HgN/A
12:20 PM68 °FPartly sunny.9 mph78%30.04 "HgN/A
11:50 AM66 °FPartly sunny.8 mph83%30.04 "HgN/A
11:20 AM64 °FPartly sunny.8 mph88%30.04 "HgN/A
10:20 AM64 °FPartly sunny.7 mph83%30.04 "HgN/A
Weather by CustomWeather, © 2014

See weather overviewHow to use our weather pages